Regional Weather Roundup
Issued by NWS

Home | Current Version | Previous Version | Text Only | Print | Product List | Glossary On
Versions: 1 2 3 4 5 6 7 8 9 10 11 12 13 14 15 16 17 18 19 20 21 22 23 24 25 26 27 28 29 30 31 32 33 34 35 36 37 38 39 40 41 42 43 44 45 46 47 48 49 50
000
ASUS43 KLOT 250709
RWRIL

ILLINOIS REGIONAL WEATHER ROUNDUP
NATIONAL WEATHER SERVICE CHICAGO/ROMEOVILLE IL
200 AM CDT SUN AUG 25 2019

NOTE: "FAIR" INDICATES FEW OR NO CLOUDS BELOW 12,000 FEET WITH NO
SIGNIFICANT WEATHER AND/OR OBSTRUCTIONS TO VISIBILITY.

* THESE STATIONS ARE NOT UNDER NWS QUALITY CONTROL. THEY ALSO MAY NOT
  REPORT WEATHER SUCH AS PRECIPITATION OR FOG.

ILZ001-002-007-009-015-016-024-250800-
NORTHWEST ILLINOIS

CITY           SKY/WX    TMP DP  RH WIND       PRES   REMARKS
MOLINE         FAIR      59  53  80 E7        30.12F
STERLING*      FAIR      55  54  96 E5        30.16F
SAVANNA*       FAIR      57  54  88 E7        30.15F
$$

ILZ003-004-008-010-011-017-018-250800-
NORTH CENTRAL ILLINOIS

CITY           SKY/WX    TMP DP  RH WIND       PRES   REMARKS
ROCKFORD       FAIR      59  55  87 E6        30.19F
FREEPORT*      FAIR      52  52 100 E3        30.18F
ROCHELLE*      FAIR      56  54  95 CALM      30.17S
DE KALB*       FAIR      56  54  93 E5        30.17F
PERU*          FAIR      56  53  88 E6        30.15F
$$

ILZ005-006-012>014-019>023-250800-
NORTHEAST ILLINOIS

CITY           SKY/WX    TMP DP  RH WIND       PRES   REMARKS
CHICAGO-OHARE  FAIR      63  53  70 SE8       30.17F
CHICAGO-MIDWAY MOCLDY    66  50  55 SE6       30.17F
AURORA         FAIR      56  52  86 E7        30.16F
LANSING*       FAIR      58  53  82 CALM      30.18F
JOLIET*        FAIR      63  54  72 E9        30.17F
WAUKEGAN       FAIR      67  52  58 SE8       30.17F
DUPAGE AIRPORT FAIR      63  51  65 SE6       30.16F
KANKAKEE*      FAIR      60  53  75 E9        30.17F
WHEELING       FAIR      65  52  62 E5        30.18F
MORRIS*        FAIR      63  53  71 E10       30.14F
ROMEOVILLE*    FAIR      60  53  76 SE6       30.17F
NORTHERLY ISL    N/A     67  54  63 SE18        N/A
$$

LMZ740>746-250800-
SOUTHERN LAKE MICHIGAN

STATION/POSITION SKY/WX   TEMP    WIND        PRES    VSBY  WAVE
                          AIR SEA DIR/SP/G                  HT/PER
                          (F)     (DEG/KT/KT) (MB)    (MI)  (FT/S)
SOUTHERN BUOY              68 72  140/ 17/ 19 1022.7F
WINTHROP HARBOR            74 72  150/ 12/ 17   N/A           3/ 4
WAUKEGAN HARBOR            71 72  130/ 14/ 19   N/A           3/ 4
WILMETTE HARBOR               73  130/ 14/ 19 1021.6          4/ 4
HARRISON CRIB              69     130/ 22/ 24   N/A
NORTHERLY ISL              67     120/ 17/ 17   N/A
CALUMET HARBOR             67     110/ 13/ 19 1021.4
BURNS HARBOR               64     110/  6/ 10 1022.4F
MICHIGAN CITY              60     100/  8/  9   N/A
MICHIGAN CITY 6N           62 63  110/ 10/ 12   N/A           1
ST. JOSEPH                 59 59  110/  4/  6 1022.8          1
$$

ILZ025>027-034>036-040-047-049-050-058-095>099-250800-
WEST-CENTRAL ILLINOIS

CITY           SKY/WX    TMP DP  RH WIND       PRES   REMARKS
QUINCY         CLOUDY    65  56  72 E10       30.07F
GALESBURG*     FAIR      60  53  78 E5        30.13F
MACOMB*        CLEAR     57  56  96 E5        30.12F
JACKSONVILLE*  PTCLDY    60  56  88 E6        30.09F
PITTSFIELD*    MOCLDY    64  60  86 E6        30.09F
$$

ILZ028>032-037-038-041>044-048-051>054-059>061-250800-
CENTRAL ILLINOIS

CITY           SKY/WX    TMP DP  RH WIND       PRES   REMARKS
PONTIAC        FAIR      60  55  83 CALM      30.15F
BLOOMINGTON    FAIR      56  53  90 E9        30.14F
DECATUR        FAIR      56  52  86 E5        30.11F
PEORIA         FAIR      61  52  72 E5        30.13F
LACON*         CLOUDY    58  53  82 E8        30.13S
LINCOLN*       FAIR      57  55  94 CALM      30.12F
SPRINGFIELD    FAIR      60  55  83 E6        30.10F
TAYLORVILLE    FAIR      60  56  86 E7        30.09F
$$

ILZ033-039-045-046-055>057-062-063-250800-
EAST-CENTRAL ILLINOIS

CITY           SKY/WX    TMP DP  RH WIND       PRES   REMARKS
CHAMPAIGN      FAIR      58  54  86 E7        30.13F
DANVILLE*      FAIR      61  57  86 E8        30.12F
RANTOUL*       FAIR      59  55  89 E9        30.14F
MATTOON        FAIR      58  55  90 NE6       30.10F
PARIS*         FAIR      59  58  96 E6        30.13F
$$

ILZ079-100>102-250800-
SOUTHWEST ILLINOIS

CITY           SKY/WX    TMP DP  RH WIND       PRES   REMARKS
ALTON          CLEAR     64  62  91 E6        30.06F
CAHOKIA*       PTCLDY    68  60  75 CALM      30.05F
SPARTA*        PTCLDY    65  62  90 E3        30.06F
$$

ILZ064>066-069>071-074>076-080>082-084>086-088>090-092>094-250800-
SOUTH-CENTRAL ILLINOIS

CITY           SKY/WX    TMP DP  RH WIND       PRES   REMARKS
CARBONDALE     FAIR      66  62  87 CALM      30.04F
CAIRO*         FAIR      68  63  84 CALM      30.02F
EFFINGHAM*     FAIR      60  54  80 CALM      30.10F
MARION         FAIR      64  62  93 CALM      30.05F
MT. VERNON     FAIR      64  60  87 NE6       30.06F
CENTRALIA*     CLEAR     64  61  89 E5        30.06F
SALEM*         MOCLDY    65  60  82 NE3       30.07F
METROPOLIS*    FAIR      65  63  90 CALM      30.03F FOG
$$

ILZ067-068-072-073-078-083-087-091-250800-
SOUTHEAST ILLINOIS

CITY           SKY/WX    TMP DP  RH WIND       PRES   REMARKS
LAWRENCEVILLE  FAIR      62  57  83 NE7       30.08F
FAIRFIELD*     FAIR      62  60  93 CALM      30.06F
HARRISBURG*    FAIR      65  60  85 E3        30.05F
ROBINSON*      FAIR      56  56 100 NE3       30.10F
CARMI*         FAIR      61  61 100 CALM      30.05F
$$

ABBREVIATIONS USED IN REMARKS
   TC - TEMPERATURE IN CELSIUS
  WCI - WIND CHILL INDEX
   HX - HEAT INDEX
  VSB - VISIBILITY
$$




USA.gov is the U.S. government's official web portal to all federal, state and local government web resources and services.